Torna al catalogo

STARLINK-3687

AttivoComunicazioniVLEO
NORAD 52110·PAYLOAD·🇺🇸 United States

Lanciato Mar 19, 2022 da Cape Canaveral Space Force Station

Loading…

Prossimi Passaggi (prossime 24 ore)

TLE

AggiornatoSource: CelesTrak SupGP

Epoca: Sep 14, 2026, 21:15 UTC

1 52110C 22029Y   26257.88590278  .00157770  00000+0  47801-2 0  2578
2 52110  53.1584 296.0761 0001143  64.0902 217.8179 15.33517320    14

Traccia STARLINK-3687 in tempo reale con AllMySat

Download on the App Store